Location: Namasale
(1.5000°N, 32.6167°E)
Time: 23:48:31
(UTC+00:00)

Transit 2A - Pass Details

Date: 24 April 2021
Orbit: 602 x 957 km, 66.7° (Epoch: 11 May)

Event Time Altitude Azimuth Distance (km) Brightness Sun altitude
Rises 03:40:56 0° 238° (WSW) 3,332 8.7 -1.3°
Reaches altitude 10° 03:45:28 10° 272° (W) 2,294 7.9 -0.2°
Maximum altitude 03:46:55 11° 288° (WNW) 2,184 7.9 0.1°
Drops below altitude 10° 03:48:20 10° 305° (NW) 2,225 8.0 0.5°
Sets 03:52:30 0° 340° (NNW) 3,044 9.0 1.5°
